Погода в Курортном

Украина / Одесская область     45°56′31″N   30°17′55″E
темп.,
°C
ветер,
м/с
пор.,
м/с
влажн.,
%
обл.,
%
осадки,
мм/ч
давл.,
гПа
погр.,
м
5 марта, пт
пт523:00+7юз6117752 0.0 1013221
02:00+7юз597937 0.0 1012163
05:00+5зюз34807 0.0 101247
08:00+7с36704 0.0 1012172
11:00+10всв34638 0.0 1012334
14:00+11юв125740 0.0 1011462
17:00+9ююв3367100 0.0 1011131
20:00+9ююз346170 0.0 101255
6 марта, сб
сб623:00+9з5115549 0.0 1013278
02:00+7ссз7128064 0.0 1016561
05:00+4с8117694 0.0 1018940
08:00+2с8116797 0.0 1022827
11:00+4с71043100 0.0 10241182
14:00+5с7840100 0.0 10251672
17:00+5с683562 0.0 10261902
20:00+2ссв354830 0.0 1028164
7 марта, вс
вс723:00+1з11460 0.0 103028
02:000з45510 0.0 1030103
05:00−1сз35660 0.0 1029133
08:000зсз34530 0.0 1029270
11:00+5зюз57400 0.0 10271401
14:00+7зюз68390 0.0 10251637
17:00+6юз69420 0.0 10221426
20:00+4юз712570 0.0 1021370
8 марта, пн
пн823:00+3юз612670 0.0 1020329
02:00+2юз5107133 0.0 1019259
05:00+1зюз598139 0.0 1018219
08:00+2зюз467520 0.0 1018229
11:00+6юз21490 0.0 1017682
14:00+7ююз435147 0.0 1016698
17:00+6ю335767 0.0 1015316
20:00+4ююз237767 0.0 101554
9 марта, вт
вт923:00+4юз237757 0.0 101544
02:00+3зсз128252 0.0 101522
05:00+2с59740 0.0 1016191
08:00+2с6107126 0.0 1018464
11:00+5с784851 0.0 1019808
14:00+6с674125 0.0 10191272
17:00+5ссв56380 0.0 10191384
20:00+2ссв59520 0.0 1022391